Location: Bacharowice
(49.9333°N, 19.5833°E)
Time: 05:35:45
(UTC+00:00)

Envisat - Pass Details

Date: 12 October 2022
Orbit: 763 x 765 km, 98.2° (Epoch: 09 December)

Event Time Altitude Azimuth Distance (km) Brightness Sun altitude
Rises 01:41:38 0° 28° (NNE) 3,245 7.0 -31.5°
Reaches altitude 10° 01:44:53 10° 50° (NE) 2,313 6.3 -31.0°
Maximum altitude 01:47:57 16° 87° (E) 1,925 5.7 -30.6°
Drops below altitude 10° 01:51:01 10° 125° (SE) 2,301 5.8 -30.1°
Sets 01:54:14 0° 147° (SSE) 3,221 6.3 -29.7°
